Location: Invercargill
(46.4000°S, 168.3500°E)
Time: 10:39:48
(UTC+13:00)

Cosmos 2263 Rocket - Pass Details

Date: 24 January 2019
Orbit: 824 x 848 km, 71.0° (Epoch: 21 February)

Event Time Altitude Azimuth Distance (km) Brightness Sun altitude
Rises 23:18:16 0° 215° (SW) 3,414 7.3 -15.1°
Reaches altitude 10° 23:20:57 10° 224° (SW) 2,476 6.0 -15.3°
Maximum altitude 23:25:53 31° 284° (WNW) 1,438 3.6 -15.9°
Drops below altitude 10° 23:30:48 10° 345° (NNW) 2,464 4.3 -16.4°
Enters shadow 23:30:49 10° 345° (NNW) 2,471 4.3 -16.4°
